Regional Weather Roundup
Issued by NWS

Home | Current Version | Previous Version | Text Only | Print | Product List | Glossary On
Versions: 1 2 3 4 5 6 7 8 9 10 11 12 13 14 15 16 17 18 19 20 21 22 23 24 25 26 27 28 29 30 31 32 33 34 35 36 37 38 39 40 41 42 43 44 45 46 47 48 49 50
000
ASUS45 KSLC 242010
RWRUT

UTAH REGIONAL WEATHER ROUNDUP
NATIONAL WEATHER SERVICE SALT LAKE CITY UT
200 PM MDT SUN JUL 24 2016

UTZ001>011-023>025-242100-

NORTHERN UTAH

CITY           SKY/WX    TMP DP  RH WIND       PRES   REMARKS
BRIGHAM CITY     N/A     87  26  10 CALM      30.10F
HILL AFB       SUNNY     87  34  15 VRB5      30.14S
LOGAN          SUNNY     86  32  14 VRB5      30.12F
OGDEN          SUNNY     88  33  14 VRB5      30.11F
PROVO AIRPORT  MOSUNNY   86  39  19 SW6       30.11F
SALT LAKE CITY SUNNY     91  33  12 NW9       30.08F
VERNAL         SUNNY     91  37  15 SE7       30.11F
WENDOVER       SUNNY     86  30  13 SE9       30.11F
HEBER CITY     SUNNY     91  23   8 W6        30.15F

$$

UTZ012>022-026-027-242100-

SOUTHERN/CENTRAL UTAH

CITY           SKY/WX    TMP DP  RH WIND       PRES   REMARKS
BLANDING       MOSUNNY   93  38  14 S3G18     30.23F
BRYCE CANYON   MOSUNNY   85  24  11 W10       30.32F
CEDAR CITY     SUNNY     95  39  14 SW12      30.14F HX  91
DELTA          SUNNY     90  28  11 CALM      30.10F
MILFORD        SUNNY     94  29  10 VRB6      30.10F
MOAB/CYNLANDS  SUNNY    100  37  11 VRB5      30.02F HX  95
PRICE          SUNNY     93  34  12 SW9       30.15F
ST GEORGE      CLEAR    102  50  17 W7        29.94F HX  99
KANAB          MOSUNNY   99  43  14 SW5       30.12F HX  94

$$

REGIONAL REPORTS     COLORADO/ARIZONA

CITY           SKY/WX    TMP DP  RH WIND       PRES   REMARKS
CRAIG, CO      SUNNY     89  34  14 VRB5      30.19F
GRAND JUNCTION SUNNY     98  41  14 VRB5      30.06F HX  93
RIFLE          SUNNY     94  41  16 NW10      30.12F HX  90
MONTROSE       LGT RAIN  87  42  20 SW8       30.16F
CORTEZ         SUNNY     93  42  17 MISG      30.16F
PAGE, AZ       MOSUNNY  101  37  11 MISG      30.02F HX  95
GRAND CANYON   MOSUNNY   90  44  20 SW16G26   30.27F
KINGMAN        SUNNY     98  50  19 SW22G31   30.05F HX  95
FLAGSTAFF      MOSUNNY   82  50  32 S12G17    30.32F

$$

REGIONAL REPORTS    NEVADA/IDAHO/WYOMING

CITY           SKY/WX    TMP DP  RH WIND       PRES   REMARKS
LAS VEGAS, NV  MOSUNNY  109  29   6 SW12G20   29.83F HX 101
ELY            SUNNY     91  25   9 SW12      30.18F
ELKO           SUNNY     89  17   7 W9        30.12F
POCATELLO, ID  SUNNY     83  35  18 W9        30.16F
BURLEY         SUNNY     81  40  23 CALM      30.12F
EVANSTON, WY   SUNNY     84  17   8 W16G29    30.29F
ROCK SPRINGS   SUNNY     86  19   8 NW14      30.26F
KEMMERER         N/A     81  19  10 W13G22    30.31S

$$



USA.gov is the U.S. government's official web portal to all federal, state and local government web resources and services.